Weather Service Report


152 
ASUS41 KPHI 310512
RWRPHI

REGIONAL WEATHER ROUNDUP
NATIONAL WEATHER SERVICE MOUNT HOLLY NJ
100 AM EDT SUN JUL 31 2016

NOTE:  "FAIR" INDICATES FEW OR NO CLOUDS BELOW 12,000 FEET WITH NO
SIGNIFICANT WEATHER AND/OR OBSTRUCTIONS TO VISIBILITY.

 * = STATION DOES NOT REPORT PRECIPITATION (E.G. RAIN, SNOW, ETC.) 
        OR FOG.

NJZ015>026-310600-
SOUTHERN NEW JERSEY
  
CITY           SKY/WX    TMP DP  RH WIND       PRES   REMARKS
POMONA         CLOUDY    77  73  87 SE8       30.00F                  
WILDWOOD*        N/A    N/A N/A N/A MISG        N/A                   
MILLVILLE      LGT RAIN  75  72  90 SE7       29.98F                  
WRIGHTSTOWN    CLOUDY    73  73  97 NE6       29.98F                  
MOUNT HOLLY    CLOUDY    74  72  93 N5        30.00F                  
TRENTON        CLOUDY    74  72  93 SE6       30.00F FOG              

$$
NJZ001>014-310600-
NORTHERN NEW JERSEY
  
CITY           SKY/WX    TMP DP  RH WIND       PRES   REMARKS
SUSSEX         CLOUDY    70  69  97 NE3       30.04F                  
ANDOVER*         N/A     70  68  93 N3        30.04F                  
MORRISTOWN     RAIN      72  70  94 CALM      30.02F                  
NEWARK         LGT RAIN  76  73  91 SE3       30.01F                  
TETERBORO      CLOUDY    76  72  87 SE5       30.01S                  
CALDWELL       LGT RAIN  74  73  97 E6        30.02F FOG              
SOMERVILLE     CLOUDY    73  71  93 CALM      30.00S FOG              
ALLAIRE*       CLOUDY    75  73  93 E5        30.03S                  
TOMS RIVER*    CLOUDY    75  73  93 SE6       30.01F                  

$$
PAZ043-044-047-054-055-060>062-066>071-310600-
EASTERN PENNSYLVANIA
  
CITY           SKY/WX    TMP DP  RH WIND       PRES   REMARKS
PHILADELPHIA   LGT RAIN  76  73  91 E9        29.99F                  
NORTH PHILA    CLOUDY    76  74  93 SE8       30.01F                  
BLUE BELL*     PTCLDY    72  72 100 CALM      29.99F                  
DOYLESTOWN     CLOUDY    72  72 100 CALM      30.00F                  
QUAKERTOWN*    CLOUDY    73  73 100 CALM      30.02F                  
PERKASIE*      CLOUDY    72  72 100 SE3       30.02F FOG              
POTTSTOWN      CLOUDY    72  72 100 E3        30.01F FOG              
LANCASTER      CLOUDY    70  69  97 SE3       29.99S                  
COATESVILLE    CLOUDY    72  72 100 E5        30.02S                  
READING        CLOUDY    72  68  87 CALM      29.99S                  
ALLENTOWN      CLOUDY    72  69  90 E5        30.01F                  
MOUNT POCONO   FOG       66  65  96 SE9       30.08S VSB 1            
HAZLETON       CLOUDY    68  68 100 CALM      30.07F                  
LEHIGHTON      CLOUDY    70  70 100 CALM      30.03S                  
WILKES BARRE   CLOUDY    70  67  90 NE5       30.03S                  

$$
DEZALL-MDZ008-012-015-019-020-310600-
DELAWARE AND EASTERN MARYLAND
  
CITY           SKY/WX    TMP DP  RH WIND       PRES   REMARKS
WILMINGTON     CLOUDY    75  73  93 E7        29.99S                  
DOVER          CLOUDY    76  76 100 SE7       29.96S                  
GEORGETOWN     LGT RAIN  75  74  96 SE3       29.98F                  
EASTON         CLOUDY    76  76 100 SE3       30.00F                  
OCEAN CITY     CLOUDY    78  74  87 CALM      29.98F                  
WALLOPS ISLAND MOCLDY    78  73  84 CALM      29.97F                  
CAMBRIDGE      CLOUDY    73  72  94 SE5       29.96F                  

$$
PAZ001-021-NYZ056-072-MDZ011-DCZ001-310600-
OTHER NEARBY LOCATIONS
  
CITY           SKY/WX    TMP DP  RH WIND       PRES   REMARKS
HARRISBURG     CLOUDY    72  71  97 SE8       29.97F                  
STATE COLLEGE  CLOUDY    69  68  98 CALM      30.00S FOG              
WILLIAMSPORT   CLOUDY    71  67  87 E10       29.97F                  
BINGHAMTON     HVY RAIN  65  65 100 SE8       30.05F FOG              
NEW YORK CITY  CLOUDY    74  72  93 S6        30.06R FOG              
BALTIMORE      CLOUDY    73  71  93 CALM      29.97F                  
WASHINGTON DC  MOCLDY    76  72  87 CALM      29.98S                  

$$
  

Return to Home page


Western Regional Climate Center, wrcc@dri.edu